| time (UTC) | temp F | wind direction | speed knots | gust knots | rain 1hr in | rain 24hr in | rain mn in | humidity % | barometer mb |
| 20260510073055 | 50 | 19 | 0.0 | 1.7 | 0.00 | 0.00 | 0.00 | 29 | 1013.7 |
| 20260510071549 | 51 | 337 | 0.9 | 3.5 | 0.00 | 0.00 | 0.00 | 26 | 1013.5 |
| 20260510070045 | 50 | 311 | 3.5 | 6.1 | 0.00 | 0.00 | 0.00 | 27 | 1013.4 |
| 20260510064547 | 52 | 324 | 2.6 | 5.2 | 0.00 | 0.00 | 0.00 | 24 | 1013.5 |
| 20260510063044 | 54 | 336 | 0.9 | 7.0 | 0.00 | 0.00 | 0.00 | 22 | 1013.4 |
| 20260510061544 | 55 | 10 | 1.7 | 2.6 | 0.00 | 0.00 | 0.00 | 22 | 1013.3 |
| 20260510060044 | 55 | 20 | 0.9 | 2.6 | 0.00 | 0.00 | 0.00 | 21 | 1013.2 |
| 20260510054543 | 55 | 70 | 0.0 | 1.7 | 0.00 | 0.00 | 0.00 | 21 | 1013.1 |
| 20260510053042 | 56 | 10 | 0.9 | 1.7 | 0.00 | 0.00 | 0.00 | 21 | 1013.1 |
| 20260510051542 | 57 | 10 | 0.9 | 1.7 | 0.00 | 0.00 | 0.00 | 19 | 1013.0 |
| 20260510050041 | 58 | 10 | 0.0 | 1.7 | 0.00 | 0.00 | 0.00 | 19 | 1012.8 |
| 20260510044546 | 58 | 10 | 0.0 | 1.7 | 0.00 | 0.00 | 0.00 | 18 | 1012.8 |
| 20260510043043 | 59 | 40 | 0.0 | 3.5 | 0.00 | 0.00 | 0.00 | 19 | 1012.6 |
| 20260510041543 | 59 | 117 | 0.9 | 3.5 | 0.00 | 0.00 | 0.00 | 17 | 1012.4 |
| 20260510040039 | 59 | 144 | 0.9 | 3.5 | 0.00 | 0.00 | 0.00 | 18 | 1012.2 |
| 20260510034539 | 60 | 338 | 0.0 | 6.1 | 0.00 | 0.00 | 0.00 | 17 | 1011.9 |
| 20260510033038 | 61 | 263 | 3.5 | 7.0 | 0.00 | 0.00 | 0.00 | 16 | 1011.7 |
| 20260510031539 | 62 | 305 | 3.5 | 7.0 | 0.00 | 0.00 | 0.00 | 15 | 1011.5 |
| 20260510030049 | 63 | 295 | 3.5 | 7.8 | 0.00 | 0.00 | 0.00 | 15 | 1011.1 |
| 20260510024537 | 67 | 314 | 4.3 | 7.0 | 0.00 | 0.00 | 0.00 | 13 | 1010.9 |
| 20260510023036 | 69 | 323 | 4.3 | 7.0 | 0.00 | 0.00 | 0.00 | 12 | 1010.8 |
| 20260510021535 | 70 | 330 | 3.5 | 9.6 | 0.00 | 0.00 | 0.00 | 11 | 1010.8 |
| 20260510020034 | 71 | 333 | 7.0 | 12.2 | 0.00 | 0.00 | 0.00 | 11 | 1010.7 |
| 20260510014535 | 72 | 5 | 7.8 | 12.2 | 0.00 | 0.00 | 0.00 | 11 | 1010.5 |
| 20260510013032 | 72 | 315 | 4.3 | 10.4 | 0.00 | 0.00 | 0.00 | 11 | 1010.5 |
| 20260510011532 | 72 | 355 | 7.0 | 11.3 | 0.00 | 0.00 | 0.00 | 11 | 1010.3 |
| 20260510010029 | 73 | 349 | 5.2 | 12.2 | 0.00 | 0.00 | 0.00 | 11 | 1010.4 |
| 20260510004529 | 73 | 327 | 8.7 | 13.0 | 0.00 | 0.00 | 0.00 | 11 | 1010.3 |
| 20260510003036 | 73 | 344 | 6.1 | 13.0 | 0.00 | 0.00 | 0.00 | 12 | 1010.2 |
| 20260510001527 | 73 | 360 | 6.1 | 13.9 | 0.00 | 0.00 | 0.00 | 11 | 1010.3 |
| 20260510000026 | 74 | 325 | 9.6 | 13.9 | 0.00 | 0.00 | 0.00 | 12 | 1010.2 |
| 20260509234531 | 74 | 290 | 7.8 | 13.0 | 0.00 | 0.00 | 0.00 | 12 | 1010.3 |
| 20260509233024 | 75 | 296 | 7.0 | 12.2 | 0.00 | 0.00 | 0.00 | 12 | 1010.2 |
| 20260509231523 | 75 | 213 | 5.2 | 9.6 | 0.00 | 0.00 | 0.00 | 14 | 1010.0 |
| 20260509230020 | 75 | 261 | 6.1 | 11.3 | 0.00 | 0.00 | 0.00 | 14 | 1010.3 |
| 20260509224519 | 74 | 261 | 1.7 | 10.4 | 0.00 | 0.00 | 0.00 | 14 | 1010.6 |
| 20260509223018 | 74 | 285 | 6.1 | 13.0 | 0.00 | 0.00 | 0.00 | 14 | 1010.6 |
| 20260509221518 | 73 | 210 | 8.7 | 12.2 | 0.00 | 0.00 | 0.00 | 16 | 1010.8 |
| 20260509220024 | 74 | 215 | 7.0 | 12.2 | 0.00 | 0.00 | 0.00 | 16 | 1011.1 |
| 20260509214517 | 74 | 223 | 6.1 | 17.4 | 0.00 | 0.00 | 0.00 | 16 | 1011.3 |
| 20260509213016 | 74 | 307 | 3.5 | 8.7 | 0.00 | 0.00 | 0.00 | 16 | 1011.6 |
| 20260509211512 | 73 | 212 | 5.2 | 11.3 | 0.00 | 0.00 | 0.00 | 14 | 1011.7 |
| 20260509210009 | 72 | 260 | 6.1 | 9.6 | 0.00 | 0.00 | 0.00 | 13 | 1011.7 |
| 20260509204507 | 71 | 222 | 4.3 | 13.9 | 0.00 | 0.00 | 0.00 | 13 | 1011.8 |
| 20260509203010 | 71 | 296 | 5.2 | 11.3 | 0.00 | 0.00 | 0.00 | 11 | 1011.9 |
| 20260509201505 | 70 | 51 | 5.2 | 13.9 | 0.00 | 0.00 | 0.00 | 15 | 1012.0 |
| 20260509200005 | 71 | 266 | 7.8 | 11.3 | 0.00 | 0.00 | 0.00 | 17 | 1012.2 |
| 20260509194504 | 70 | 9 | 3.5 | 10.4 | 0.00 | 0.00 | 0.00 | 18 | 1012.3 |
| 20260509193004 | 71 | 9 | 5.2 | 9.6 | 0.00 | 0.00 | 0.00 | 17 | 1012.4 |
| 20260509191601 | 70 | 137 | 0.9 | 5.2 | 0.00 | 0.00 | 0.00 | 17 | 1012.7 |
| 20260509190056 | 68 | 292 | 4.3 | 7.8 | 0.00 | 0.00 | 0.00 | 19 | 1012.8 |
| 20260509184556 | 67 | 173 | 3.5 | 8.7 | 0.00 | 0.00 | 0.00 | 20 | 1013.1 |
| 20260509183053 | 66 | 300 | 4.3 | 7.8 | 0.00 | 0.00 | 0.00 | 20 | 1013.2 |
| 20260509181558 | 67 | 184 | 3.5 | 6.1 | 0.00 | 0.00 | 0.00 | 20 | 1013.1 |
| 20260509180049 | 66 | 90 | 1.7 | 7.8 | 0.00 | 0.00 | 0.00 | 21 | 1013.0 |
| 20260509174546 | 64 | 90 | 4.3 | 9.6 | 0.00 | 0.00 | 0.00 | 20 | 1013.1 |
| 20260509173046 | 65 | 57 | 0.9 | 4.3 | 0.00 | 0.00 | 0.00 | 24 | 1013.2 |
| 20260509171540 | 63 | 145 | 0.9 | 3.5 | 0.00 | 0.00 | 0.00 | 23 | 1013.3 |
| 20260509170044 | 61 | 216 | 1.7 | 4.3 | 0.00 | 0.00 | 0.00 | 24 | 1013.4 |
| 20260509164540 | 60 | 87 | 4.3 | 7.8 | 0.00 | 0.00 | 0.00 | 26 | 1013.3 |
| 20260509163034 | 59 | 172 | 0.9 | 3.5 | 0.00 | 0.00 | 0.00 | 30 | 1013.3 |
| 20260509161535 | 57 | 142 | 0.9 | 4.3 | 0.00 | 0.00 | 0.00 | 33 | 1013.4 |
| 20260509160037 | 56 | 243 | 0.9 | 2.6 | 0.00 | 0.00 | 0.00 | 34 | 1013.3 |
| 20260509154534 | 54 | 206 | 0.9 | 3.5 | 0.00 | 0.00 | 0.00 | 36 | 1013.4 |
| 20260509153038 | 52 | 228 | 0.9 | 2.6 | 0.00 | 0.00 | 0.00 | 38 | 1013.3 |
| 20260509151528 | 51 | 180 | 0.0 | 1.7 | 0.00 | 0.00 | 0.00 | 39 | 1013.3 |
| 20260509150028 | 51 | 169 | 0.0 | 1.7 | 0.00 | 0.00 | 0.00 | 40 | 1013.3 |
| 20260509144533 | 49 | 140 | 0.0 | 2.6 | 0.00 | 0.00 | 0.00 | 42 | 1013.4 |
| 20260509143027 | 47 | 108 | 0.0 | 1.7 | 0.00 | 0.00 | 0.00 | 44 | 1013.3 |
| 20260509141526 | 46 | 140 | 0.0 | 1.7 | 0.00 | 0.00 | 0.00 | 49 | 1013.3 |
| 20260509140023 | 45 | 47 | 0.0 | 1.7 | 0.00 | 0.00 | 0.00 | 50 | 1013.2 |
| 20260509134522 | 45 | 281 | 1.7 | 2.6 | 0.00 | 0.00 | 0.00 | 47 | 1013.0 |
| 20260509133021 | 44 | 69 | 0.0 | 1.7 | 0.00 | 0.00 | 0.00 | 47 | 1012.8 |
| 20260509131520 | 43 | 355 | 0.0 | 1.7 | 0.00 | 0.00 | 0.00 | 45 | 1012.7 |
| 20260509130018 | 43 | 240 | 0.0 | 1.7 | 0.00 | 0.00 | 0.00 | 49 | 1012.8 |
| 20260509124517 | 43 | 58 | 0.0 | 1.7 | 0.00 | 0.00 | 0.00 | 45 | 1012.6 |
| 20260509123018 | 44 | 58 | 0.0 | 1.7 | 0.00 | 0.00 | 0.00 | 45 | 1012.5 |
| 20260509121514 | 45 | 55 | 0.0 | 2.6 | 0.00 | 0.00 | 0.00 | 42 | 1012.4 |
| 20260509120009 | 45 | 32 | 0.0 | 0.9 | 0.00 | 0.00 | 0.00 | 39 | 1012.2 |
| 20260509114506 | 46 | 260 | 0.9 | 3.5 | 0.00 | 0.00 | 0.00 | 39 | 1012.0 |
| 20260509113005 | 46 | 270 | 1.7 | 3.5 | 0.00 | 0.00 | 0.00 | 41 | 1011.9 |
| 20260509111503 | 46 | 294 | 4.3 | 6.1 | 0.00 | 0.00 | 0.00 | 39 | 1011.8 |
| 20260509110001 | 46 | 281 | 3.5 | 5.2 | 0.00 | 0.00 | 0.00 | 39 | 1011.8 |
| 20260509104600 | 46 | 292 | 4.3 | 7.0 | 0.00 | 0.00 | 0.00 | 39 | 1011.7 |
| 20260509103102 | 48 | 250 | 1.7 | 5.2 | 0.00 | 0.00 | 0.00 | 38 | 1011.7 |
| 20260509101600 | 48 | 360 | 4.3 | 8.7 | 0.00 | 0.00 | 0.00 | 37 | 1011.5 |
| 20260509100052 | 50 | 360 | 2.6 | 4.3 | 0.00 | 0.00 | 0.00 | 36 | 1011.4 |
| 20260509094548 | 51 | 320 | 0.9 | 7.0 | 0.00 | 0.00 | 0.00 | 34 | 1011.2 |
| 20260509093042 | 52 | 274 | 1.7 | 3.5 | 0.00 | 0.00 | 0.00 | 33 | 1011.1 |
| 20260509091538 | 55 | 290 | 1.7 | 3.5 | 0.00 | 0.00 | 0.00 | 31 | 1011.2 |
| 20260509090041 | 56 | 115 | 0.0 | 3.5 | 0.00 | 0.00 | 0.00 | 28 | 1011.2 |
| 20260509084537 | 57 | 49 | 0.0 | 1.7 | 0.00 | 0.00 | 0.00 | 27 | 1011.0 |
| 20260509083030 | 58 | 71 | 2.6 | 7.8 | 0.00 | 0.00 | 0.00 | 25 | 1010.8 |
| 20260509081533 | 59 | 86 | 6.1 | 8.7 | 0.00 | 0.00 | 0.00 | 25 | 1010.8 |
| 20260509080027 | 60 | 32 | 7.0 | 9.6 | 0.00 | 0.00 | 0.00 | 24 | 1010.7 |
| 20260509074525 | 60 | 68 | 4.3 | 12.2 | 0.00 | 0.00 | 0.00 | 25 | 1010.7 |